This demonstration page uses our WeatherBlox Daily Observations layout. Learn more.

Hourly Observations for March 12, 2019

Temp ( °F °C ) Dew Point ( °F °C ) Humidity (%) Winds ( mph kmh ) Pressure ( in mb ) Visibility ( mi km ) Precip ( " mm )
12:15 am 00:15 Cloudy 40 4.5 33 0.7 77 77 SSE 10 17 30.21 1023 10 16.09344 0 0
12:35 am 00:35 Cloudy 40 4.6 33 0.6 76 76 SSE 13 20 30.15 1021 10 16.09344 0 0
12:55 am 00:55 Cloudy 40 4.5 33 0.5 76 76 SSE 10 17 30.18 1022 10 16.09344 0 0
1:15 am 01:15 Cloudy 40 4.4 33 0.5 76 76 SE 8 13 30.18 1022 10 16.09344 0 0
1:35 am 01:35 Cloudy 40 4.3 33 0.5 77 77 SE 9 15 30.18 1022 10 16.09344 0 0
1:55 am 01:55 Cloudy 40 4.2 33 0.5 77 77 SSE 8 13 30.18 1022 10 16.09344 0 0
2:15 am 02:15 Cloudy 40 4.3 33 0.4 76 76 SSE 12 19 30.12 1020 10 16.09344 0 0
2:35 am 02:35 Cloudy 40 4.5 33 0.4 75 75 SE 7 11 30.12 1020 10 16.09344 0 0
2:55 am 02:55 Cloudy 38 3.5 33 0.3 80 80 ESE 6 9 30.15 1021 10 16.09344 0 0
3:15 am 03:15 Cloudy 38 3.5 33 0.5 81 81 E 6 9 30.15 1021 10 16.09344 0 0
3:35 am 03:35 Cloudy 39 3.7 33 0.6 80 80 E 8 13 30.15 1021 10 16.09344 0 0
3:55 am 03:55 Cloudy 39 3.9 33 0.6 79 79 E 8 13 30.12 1020 10 16.09344 0 0
4:15 am 04:15 Cloudy 39 3.8 33 0.8 81 81 E 7 11 30.12 1020 10 16.09344 0 0
4:35 am 04:35 Cloudy 39 4 34 1 81 81 ESE 7 11 30.09 1019 10 16.09344 0 0
4:55 am 04:55 Cloudy 39 3.8 34 1.1 83 83 E 6 9 30.12 1020 10 16.09344 0 0
5:15 am 05:15 Cloudy 38 3.4 34 1 84 84 E 3 6 30.09 1019 10 16.09344 0 0
5:35 am 05:35 Cloudy 40 4.7 36 2.2 84 84 S 10 17 30.06 1018 10 16.09344 0 0
5:55 am 05:55 Cloudy 40 4.6 36 2.3 85 85 S 12 19 30.06 1018 10 16.09344 0 0
6:15 am 06:15 Cloudy 40 4.7 37 2.5 86 86 S 12 19 30.06 1018 10 16.09344 0 0
6:35 am 06:35 Cloudy 40 4.7 37 2.6 86 86 S 13 20 30.03 1017 10 16.09344 0 0
6:55 am 06:55 Cloudy 41 4.8 37 2.8 87 87 S 16 26 30.03 1017 10 16.09344 0 0
7:15 am 07:15 Cloudy 41 4.8 37 3 88 88 S 14 22 30.03 1017 7 11.265408 0 0
7:35 am 07:35 Cloudy with Mist and Fog 40 4.7 38 3.2 90 90 S 18 30 30 1016 5 8.04672 0 0
7:55 am 07:55 Cloudy with Mist and Fog 40 4.6 38 3.5 93 93 S 17 28 30 1016 3 4.828032 0 0
8:15 am 08:15 Cloudy with Mist and Fog 40 4.5 38 3.5 93 93 S 15 24 30 1016 2.5 4.02336 0 0
8:35 am 08:35 Cloudy with Mist and Fog 40 4.3 38 3.4 94 94 S 18 30 30 1016 1.5 2.414016 0 0
8:55 am 08:55 Cloudy with Fog 40 4.3 38 3.5 95 95 S 18 30 29.97 1015 0.5 0.804672 0 0
9:15 am 09:15 Cloudy with Fog 40 4.2 38 3.5 95 95 S 17 28 29.97 1015 0.25 0.402336 0 0
9:35 am 09:35 Cloudy with Light Drizzle 40 4.2 38 3.5 95 95 S 13 20 29.97 1015 0.25 0.402336 0 0
9:55 am 09:55 Cloudy with Fog 40 4.3 38 3.5 95 95 S 15 24 29.97 1015 0.25 0.402336 0 0
10:15 am 10:15 Cloudy with Fog 40 4.7 39 4 95 95 S 16 26 29.94 1014 0.25 0.402336 0 0
10:35 am 10:35 Cloudy with Fog 41 5 40 4.3 95 95 S 17 28 29.94 1014 0.25 0.402336 0 0
10:55 am 10:55 Cloudy with Fog 43 5.9 41 5.1 95 95 S 18 30 29.88 1012 0.5 0.804672 0 0
11:15 am 11:15 Cloudy with Mist and Fog 44 6.5 42 5.8 95 95 S 18 30 29.91 1013 1 1.609344 0 0
11:35 am 11:35 Cloudy with Mist and Fog 43 6.3 42 5.6 95 95 S 17 28 29.88 1012 0.75 1.207008 0 0
11:55 am 11:55 Cloudy with Mist and Fog 44 6.6 43 6 96 96 S 17 28 29.88 1012 1.5 2.414016 0 0
12:15 pm 12:15 Cloudy with Mist and Fog 45 7.1 44 6.4 95 95 S 16 26 29.85 1011 1.75 2.816352 0 0
12:35 pm 12:35 Cloudy with Mist and Fog 45 7.1 43 6.1 93 93 S 15 24 29.85 1011 2 3.218688 0 0
12:55 pm 12:55 Cloudy with Mist and Fog 46 7.5 44 6.5 93 93 S 12 19 29.85 1011 3 4.828032 0 0
1:15 pm 13:15 Cloudy with Mist and Fog 45 7.1 43 6.1 93 93 SSE 10 17 29.83 1010 3 4.828032 0 0
1:35 pm 13:35 Cloudy with Mist and Fog 46 7.6 44 6.5 93 93 S 12 19 29.83 1010 5 8.04672 0 0
1:55 pm 13:55 Cloudy 46 7.8 44 6.6 92 92 S 13 20 29.77 1008 7 11.265408 0 0
2:15 pm 14:15 Cloudy 47 8.2 45 7 92 92 S 10 17 29.77 1008 7 11.265408 0 0
2:35 pm 14:35 Cloudy with Mist and Fog 47 8.4 45 7.1 92 92 S 10 17 29.77 1008 5 8.04672 0 0
2:55 pm 14:55 Cloudy with Mist and Fog 48 8.7 46 7.5 92 92 S 9 15 29.74 1007 5 8.04672 0 0
3:15 pm 15:15 Cloudy with Mist and Fog 48 8.9 46 7.7 92 92 S 9 15 29.74 1007 5 8.04672 0 0
3:35 pm 15:35 Cloudy 49 9.3 46 8 92 92 S 10 17 29.71 1006 7 11.265408 0 0
3:55 pm 15:55 Cloudy with Mist and Fog 49 9.3 46 8 92 92 S 12 19 29.71 1006 5 8.04672 0 0
4:15 pm 16:15 Cloudy with Mist and Fog 49 9.4 47 8.2 92 92 S 8 13 29.71 1006 5 8.04672 0 0
4:35 pm 16:35 Cloudy 50 10.1 47 8.6 91 91 S 6 9 29.71 1006 7 11.265408 0 0
4:55 pm 16:55 Mostly Cloudy 53 11.9 49 9.2 84 84 S 8 13 29.68 1005 10 16.09344 0 0
5:15 pm 17:15 Partly Cloudy 54 12.1 48 9.1 82 82 SSW 7 11 29.68 1005 10 16.09344 0 0
5:35 pm 17:35 Sunny 54 12.2 49 9.4 83 83 SE 5 7 29.68 1005 10 16.09344 0 0
5:55 pm 17:55 Sunny 54 12.3 49 9.3 82 82 E 5 7 29.68 1005 10 16.09344 0 0
6:15 pm 18:15 Sunny 54 12 48 9.1 83 83 SE 7 11 29.65 1004 10 16.09344 0 0
6:35 pm 18:35 Sunny 53 11.4 48 8.9 85 85 ESE 6 9 29.65 1004 10 16.09344 0 0
6:55 pm 18:55 Sunny 51 10.3 47 8.4 88 88 E 5 7 29.65 1004 7 11.265408 0 0
7:15 pm 19:15 Sunny 49 9.7 47 8.1 90 90 E 8 13 29.68 1005 7 11.265408 0 0
7:35 pm 19:35 Sunny with Mist and Fog 48 9.1 46 8 93 93 E 7 11 29.68 1005 4 6.437376 0 0
7:55 pm 19:55 Mostly Cloudy with Mist and Fog 47 8.4 45 7.4 94 94 ESE 7 11 29.68 1005 0.75 1.207008 0 0
8:15 pm 20:15 Cloudy with Mist and Fog 46 8 45 7.1 94 94 ESE 8 13 29.68 1005 0.75 1.207008 0 0
8:35 pm 20:35 Cloudy with Mist and Fog 46 7.9 45 7.1 95 95 ESE 6 9 29.68 1005 1.5 2.414016 0 0
8:55 pm 20:55 Cloudy with Mist and Fog 46 8 45 7.4 96 96 E 8 13 29.68 1005 1.5 2.414016 0 0
9:15 pm 21:15 Cloudy with Fog 47 8.3 46 7.7 96 96 ESE 9 15 29.65 1004 0.5 0.804672 0 0
9:35 pm 21:35 Cloudy with Mist and Fog 48 8.9 47 8.3 96 96 E 8 13 29.65 1004 3 4.828032 0 0
9:55 pm 21:55 Cloudy with Mist and Fog 48 9 47 8.4 96 96 ESE 8 13 29.65 1004 4 6.437376 0 0
10:15 pm 22:15 Cloudy 49 9.3 48 8.8 97 97 E 7 11 29.65 1004 7 11.265408 0 0
10:35 pm 22:35 Cloudy 49 9.6 48 9.1 97 97 ESE 9 15 29.65 1004 7 11.265408 0 0
10:55 pm 22:55 Cloudy 49 9.6 48 9 96 96 SE 9 15 29.65 1004 7 11.265408 0 0
11:15 pm 23:15 Cloudy 50 9.8 48 9.1 95 95 E 7 11 29.59 1002 10 16.09344 0 0
11:35 pm 23:35 Cloudy 49 9.4 47 8.6 95 95 E 8 13 29.59 1002 7 11.265408 0 0
11:55 pm 23:55 Cloudy 49 9.6 48 9 96 96 ESE 8 13 29.59 1002 7 11.265408 0 0

Powered by AerisWeather